CST,Max TemperatureF,Mean TemperatureF,Min TemperatureF,Max Dew PointF,MeanDew PointF,Min DewpointF,Max Humidity, Mean Humidity, Min Humidity, Max Sea Level PressureIn, Mean Sea Level PressureIn, Min Sea Level PressureIn, Max VisibilityMiles, Mean VisibilityMiles, Min VisibilityMiles, Max Wind SpeedMPH, Mean Wind SpeedMPH, Max Gust SpeedMPH,PrecipitationIn, CloudCover, Events, WindDirDegrees
2012-12-1,66,52,38,56,48,37,100,87,73,29.98,29.87,29.78,10,4,0,12,5,15,0.00,7,Fog,170
2012-12-2,64,48,32,47,39,33,100,76,52,30.05,29.96,29.84,10,4,0,9,2,12,0.00,3,Fog,155
2012-12-3,72,56,39,57,48,31,93,69,44,30.04,29.80,29.68,10,10,6,35,16,45,0.00,2,,227
2012-12-4,63,44,25,32,26,21,85,53,20,30.33,30.25,30.08,10,10,10,10,2,14,0.00,0,,279
2012-12-5,61,42,23,30,26,19,88,56,23,30.34,30.21,30.01,10,10,10,26,8,33,0.00,0,,159
2012-12-6,51,47,43,41,37,30,89,71,53,29.99,29.94,29.87,10,10,10,13,7,15,T,4,,204
2012-12-7,47,41,34,40,37,34,100,85,70,29.98,29.93,29.88,10,6,0,13,5,15,0.01,7,Fog-Rain,20
2012-12-8,44,36,27,36,31,27,100,81,62,30.04,29.97,29.90,10,3,0,13,5,16,0.01,5,Fog-Rain,59
2012-12-9,42,31,20,37,28,9,100,75,49,30.12,29.95,29.84,10,6,2,26,12,32,0.01,6,Rain,317
2012-12-10,31,23,14,10,6,2,62,45,28,30.17,30.08,30.03,10,10,10,22,9,26,0.00,4,,277
2012-12-11,46,30,14,19,14,7,80,56,31,30.14,30.08,30.02,10,10,10,15,5,18,0.00,0,,211
2012-12-12,51,36,20,20,14,11,74,48,21,30.20,30.13,30.09,10,10,10,23,12,31,0.00,0,,182
2012-12-13,55,41,26,21,17,12,63,44,24,30.14,30.11,30.06,10,10,10,21,9,24,0.00,0,,196
2012-12-14,54,39,24,43,30,19,81,60,39,30.10,29.93,29.70,10,9,2,23,10,26,0.31,5,Rain,166
2012-12-15,52,44,36,45,42,34,92,82,71,29.75,29.59,29.48,10,10,3,23,12,29,0.06,7,Rain,231
2012-12-16,38,36,34,36,33,30,92,87,82,29.82,29.77,29.72,7,5,2,12,6,14,0.00,7,,346
2012-12-17,40,34,27,32,29,25,92,84,76,29.81,29.75,29.67,10,6,3,13,4,15,0.00,6,,262
2012-12-18,53,42,31,34,31,28,89,70,50,29.91,29.73,29.58,10,10,10,20,8,32,0.00,1,,244
2012-12-19,39,35,30,34,32,28,92,84,75,29.92,29.71,29.54,10,7,2,25,10,30,0.25,6,Rain-Snow-Thunderstorm,57
2012-12-20,35,28,21,32,21,11,100,84,68,30.27,29.86,29.48,10,3,0,44,24,55,0.29,8,Fog-Snow,324
2012-12-21,33,22,11,20,14,10,92,72,51,30.40,30.33,30.27,10,10,8,9,2,30,0.00,0,Snow,277
2012-12-22,41,28,14,28,19,9,92,76,53,30.25,30.07,29.96,10,10,6,7,3,,0.00,0,,174
2012-12-23,29,22,15,21,17,12,92,78,63,30.06,30.01,29.97,7,5,2,12,6,14,0.00,4,,355
2012-12-24,22,19,16,16,12,9,84,76,67,30.25,30.12,30.00,10,8,4,20,12,24,0.00,5,,349
2012-12-25,19,15,10,10,6,3,80,68,56,30.44,30.34,30.25,10,10,10,24,15,28,0.00,3,,9
2012-12-26,23,14,4,13,7,0,83,71,59,30.35,30.29,30.22,10,10,10,15,6,18,0.00,0,,356
2012-12-27,31,21,10,22,16,6,92,80,68,30.22,30.08,29.97,10,10,10,15,7,20,0.00,6,,101
2012-12-28,29,25,20,23,20,14,84,76,68,30.13,30.03,29.98,10,7,4,18,8,22,T,7,Snow,318
2012-12-29,34,24,14,19,15,11,80,66,51,30.32,30.26,30.11,10,8,5,21,8,23,0.00,4,,282
2012-12-30,44,28,11,24,16,8,92,68,43,30.34,30.25,30.11,10,7,0,23,9,28,0.00,0,Fog,193
2012-12-31,36,28,20,25,21,13,84,72,59,30.25,30.15,30.10,10,5,0,18,10,22,0.02,8,Fog-Snow,11